Location: UBC Liquid-Mirror Observatory
(49.2876°N, 122.5728°W)
Time: 21:25:37
(UTC-07:00)

Amateur Radio Satellites - All Passes

Search period start: 28 March 2015 20:55
Search period end: 29 March 2015 20:55
Location: UBC Liquid-Mirror Observatory, 49.2876°N, 122.5728°W

Satellite Date Start Highest point End Downlink Frequencies (MHz)
Time Altitude Azimuth
BRITE-PL 28 Mar 20:57:46 21:02:25 61° 259° (W) 21:06:46 437.365/2234.400
UKube-1 28 Mar 20:59:35 21:01:50 14° 58° (ENE) 21:04:14 .
AAUSAT CUBESAT 2 28 Mar 21:07:17 21:11:24 61° 73° (ENE) 21:15:34 437.432
DX 1 28 Mar 21:08:05 21:10:56 18° 60° (ENE) 21:13:55 434.975-435.025
PCSat 28 Mar 21:09:48 21:12:22 13° 13° (NNE) 21:15:00 145.827
M-CUBED/EXP-1 PRIME 28 Mar 21:10:07 21:11:29 11° 314° (NW) 21:12:40 437.505
SEEDS 28 Mar 21:10:09 21:14:23 89° 77° (ENE) 21:18:40 437.485
HUMSAT D 28 Mar 21:12:45 21:14:11 12° 58° (ENE) 21:15:47 437.325/437.525
GONETS M04 28 Mar 21:13:01 21:21:35 58° 288° (WNW) 21:30:13
CUBESAT XI-V 28 Mar 21:16:16 21:19:43 20° 299° (WNW) 21:23:01 437.345
CINEMA 3 28 Mar 21:25:24 21:29:33 65° 73° (ENE) 21:33:41 145.822/145.860
Oscar 11 28 Mar 21:27:05 21:31:15 50° 71° (ENE) 21:35:29 145.826/435.025
COMPASS 1 28 Mar 21:33:49 21:37:59 63° 259° (W) 21:42:12 437.405
FUNcube-1 28 Mar 21:36:41 21:40:24 33° 68° (ENE) 21:44:11 145.935
UWE-3 28 Mar 21:38:50 21:42:44 42° 70° (ENE) 21:46:43 435.000/436.395/437.385
RS-15 28 Mar 21:39:05 21:49:57 66° 319° (NW) 22:01:10 29.354- 29.394
CUSAT 1 28 Mar 21:39:48 21:42:31 57° 100° (E) 21:45:05 437.405
DOVE 4 28 Mar 21:40:47 21:44:59 48° 261° (W) 21:49:03 437.250
CUBEBUG 2 28 Mar 21:42:13 21:46:15 54° 72° (ENE) 21:50:22 437.445
VELOX 1 28 Mar 21:44:58 21:48:00 19° 61° (ENE) 21:51:08 145.980
STRAND 1 28 Mar 21:45:32 21:49:39 24° 300° (WNW) 21:53:39 437.568
ZACube-1 28 Mar 21:49:01 21:52:57 44° 70° (ENE) 21:56:57 437.345
AISAT 28 Mar 21:49:04 21:52:18 21° 62° (ENE) 21:55:39 437.250
GOMX 1 28 Mar 21:49:08 21:53:03 29° 265° (W) 21:56:46 467.674
CUBEBUG 1 28 Mar 21:49:41 21:50:26 10° 55° (NE) 21:51:25 437.445
AIST 2 28 Mar 21:55:49 21:57:49 13° 249° (WSW) 21:59:36 435.215
CANX-2 28 Mar 22:02:43 22:06:08 23° 269° (W) 22:09:30 2200.000
50 SAT 28 Mar 22:05:12 22:08:20 24° 65° (ENE) 22:11:34 437.505
HO-68 28 Mar 22:09:26 22:15:50 33° 267° (W) 22:22:10 435.675
ESTCUBE 1 28 Mar 22:16:08 22:19:27 21° 61° (ENE) 22:22:51 437.505/2401.250
CUTE 1.7 + AOD 2 28 Mar 22:17:17 22:20:18 18° 271° (W) 22:23:14 437.475
DANDE 28 Mar 22:25:02 22:27:50 40° 285° (WNW) 22:30:21 436.750
DELFI C3 28 Mar 22:26:40 22:30:39 51° 261° (W) 22:34:39 145.870
ANTELSAT 28 Mar 22:26:42 22:27:39 11° 84° (E) 22:28:53 437.575/2403.000
SO-50 28 Mar 22:31:11 22:34:45 20° 337° (NNW) 22:38:21 436.795
UKube-1 28 Mar 22:33:05 22:37:27 83° 258° (WSW) 22:41:49 .
DX 1 28 Mar 22:42:27 22:46:47 64° 258° (WSW) 22:51:08 434.975-435.025
AAUSAT CUBESAT 2 28 Mar 22:44:56 22:47:30 15° 272° (W) 22:49:58 437.432
HUMSAT D 28 Mar 22:45:15 22:49:21 88° 76° (ENE) 22:53:31 437.325/437.525
SEEDS 28 Mar 22:49:52 22:50:57 11° 276° (W) 22:51:48 437.485
PCSat 28 Mar 22:52:50 22:57:36 30° 38° (NE) 23:02:24 145.827
Oscar 11 28 Mar 23:04:34 23:07:47 19° 270° (W) 23:10:54 145.826/435.025
CINEMA 3 28 Mar 23:05:02 23:07:18 14° 273° (W) 23:09:25 145.822/145.860
YUBILEINY 28 Mar 23:08:09 23:13:34 18° 48° (NE) 23:19:19 435.215
FUNcube-1 28 Mar 23:13:15 23:16:49 27° 266° (W) 23:20:22 145.935
POPSAT HIP 1 28 Mar 23:15:13 23:17:46 16° 89° (E) 23:20:28 437.405
GONETS M04 28 Mar 23:15:50 23:20:57 16° 315° (NW) 23:25:43
UWE-3 28 Mar 23:16:19 23:19:32 21° 269° (W) 23:22:42 435.000/436.395/437.385
BUGSAT 1 28 Mar 23:18:53 23:20:17 12° 86° (E) 23:21:52 437.445
VELOX 1 28 Mar 23:19:46 23:24:11 62° 259° (WSW) 23:28:36 145.980
UNISAT 6 28 Mar 23:20:22 23:24:32 34° 96° (E) 23:28:47 437.425
CUBEBUG 2 28 Mar 23:20:39 23:23:23 16° 271° (W) 23:26:00 437.445
CUBEBUG 1 28 Mar 23:21:41 23:26:04 69° 73° (ENE) 23:30:27 437.445
AISAT 28 Mar 23:24:14 23:28:36 54° 259° (W) 23:32:59 437.250
NANOSAT C BR1 28 Mar 23:25:42 23:28:48 20° 91° (E) 23:32:00 145.865
ZACube-1 28 Mar 23:26:27 23:29:36 20° 269° (W) 23:32:42 437.345
TISAT 1 28 Mar 23:26:39 23:29:46 21° 63° (ENE) 23:32:58 437.305
POLYITAN 1 28 Mar 23:29:12 23:32:30 22° 92° (E) 23:35:54 437.675
TIGRISAT 28 Mar 23:30:51 23:35:09 42° 97° (E) 23:39:33 435.000
SPROUT 28 Mar 23:34:06 23:37:43 27° 65° (ENE) 23:41:23 437.525
50 SAT 28 Mar 23:39:31 23:43:08 35° 263° (W) 23:46:47 437.505
ESTCUBE 1 28 Mar 23:51:29 23:55:59 58° 260° (W) 00:00:30 437.505/2401.250
RS-15 28 Mar 23:54:41 00:04:47 38° 350° (N) 00:15:12 29.354- 29.394
SWISSCUBE 28 Mar 23:57:14 23:58:47 12° 53° (NE) 00:00:32 437.505
BEESAT 29 Mar 00:00:23 00:01:52 12° 53° (NE) 00:03:33 436.000
ANTELSAT 29 Mar 00:00:41 00:05:16 82° 103° (ESE) 00:09:55 437.575/2403.000
ISS 29 Mar 00:06:09 00:09:06 32° 147° (SSE) 00:12:05 145.825
QB50P1 29 Mar 00:06:21 00:10:29 50° 100° (E) 00:14:37 145.935-145.965
DUCHIFAT 1 29 Mar 00:08:35 00:12:42 52° 100° (E) 00:16:50 145.980
SO-50 29 Mar 00:14:42 00:17:06 13° 1° (N) 00:19:32 436.795
QB50P2 29 Mar 00:20:55 00:25:10 73° 102° (ESE) 00:29:24 145.880/145.840
HUMSAT D 29 Mar 00:25:16 00:25:52 10° 276° (W) 00:26:15 437.325/437.525
PCSat 29 Mar 00:36:04 00:41:28 65° 240° (WSW) 00:46:49 145.827
ITUPSAT 1 29 Mar 00:44:03 00:47:55 25° 62° (ENE) 00:51:52 437.325
POPSAT HIP 1 29 Mar 00:49:56 00:54:06 60° 288° (WNW) 00:58:16 437.405
BUGSAT 1 29 Mar 00:52:20 00:56:23 75° 286° (WNW) 01:00:24 437.445
UNISAT 6 29 Mar 00:57:15 01:01:18 32° 293° (WNW) 01:05:22 437.425
CUBEBUG 1 29 Mar 01:00:20 01:02:59 15° 272° (W) 01:05:27 437.445
NANOSAT C BR1 29 Mar 01:00:53 01:04:57 46° 290° (WNW) 01:09:00 145.865
TISAT 1 29 Mar 01:01:12 01:05:18 48° 261° (W) 01:09:25 437.305
YUBILEINY 29 Mar 01:03:53 01:12:41 64° 74° (ENE) 01:21:25 435.215
POLYITAN 1 29 Mar 01:04:37 01:08:39 42° 291° (WNW) 01:12:40 437.675
TIGRISAT 29 Mar 01:07:57 01:11:46 27° 295° (WNW) 01:15:34 435.000
SPROUT 29 Mar 01:09:44 01:13:42 36° 263° (W) 01:17:41 437.525
SWISSCUBE 29 Mar 01:31:04 01:35:51 66° 71° (ENE) 01:40:39 437.505
BEESAT 29 Mar 01:34:09 01:38:54 66° 72° (ENE) 01:43:41 436.000
ANTELSAT 29 Mar 01:38:49 01:41:33 16° 301° (WNW) 01:44:11 437.575/2403.000
ISS 29 Mar 01:42:07 01:45:23 71° 347° (NNW) 01:48:38 145.825
QB50P1 29 Mar 01:42:56 01:46:05 20° 297° (WNW) 01:49:09 145.935-145.965
DUCHIFAT 1 29 Mar 01:45:09 01:48:15 20° 298° (WNW) 01:51:15 145.980
KKS-1 29 Mar 01:52:00 01:55:24 22° 63° (ENE) 01:58:54 437.445
SO-50 29 Mar 01:55:42 01:59:26 21° 25° (NNE) 02:03:14 436.795
QB50P2 29 Mar 01:58:04 02:00:36 15° 300° (WNW) 02:03:01 145.880/145.840
ITAMSAT 1 29 Mar 02:06:14 02:07:27 11° 83° (E) 02:08:59 435.822/435.867
RS-15 29 Mar 02:09:57 02:20:32 44° 23° (NNE) 02:31:38 29.354- 29.394
ITUPSAT 1 29 Mar 02:20:53 02:25:34 50° 260° (W) 02:30:17 437.325
PCSat 29 Mar 02:22:29 02:23:59 11° 257° (WSW) 02:25:09 145.827
STARS 29 Mar 02:24:44 02:28:30 29° 65° (ENE) 02:32:20 437.465
Oscar 19 29 Mar 02:38:20 02:43:27 59° 101° (E) 02:48:35 437.125/150
Gurwin Techsat 1B 29 Mar 02:50:08 02:54:18 23° 90° (E) 02:58:33 435.225
YUBILEINY 29 Mar 03:01:21 03:09:04 34° 277° (W) 03:16:34 435.215
SWISSCUBE 29 Mar 03:10:54 03:14:14 18° 271° (W) 03:17:25 437.505
BEESAT 29 Mar 03:13:57 03:17:17 18° 271° (W) 03:20:28 436.000
ISS 29 Mar 03:18:47 03:22:00 56° 6° (N) 03:25:12 145.825
M-CUBED/EXP-1 PRIME 29 Mar 03:20:25 03:20:51 10° 45° (NE) 03:21:27 437.505
MOZHAYETS 4 29 Mar 03:24:45 03:27:12 15° 58° (ENE) 03:29:48
KKS-1 29 Mar 03:27:30 03:31:48 49° 261° (W) 03:36:08 437.445
AIST 1 29 Mar 03:31:47 03:33:18 12° 83° (E) 03:35:02
O/OREOS (USA 219) 29 Mar 03:34:17 03:35:30 11° 98° (E) 03:36:59 437.305
SO-50 29 Mar 03:35:55 03:40:52 68° 47° (NE) 03:45:49 436.795
ITAMSAT 1 29 Mar 03:42:48 03:48:01 73° 103° (ESE) 03:53:12 435.822/435.867
AO-7 29 Mar 03:44:35 03:49:26 17° 83° (E) 03:54:44 29.400- 29.500
JAS-2 29 Mar 03:46:15 03:50:45 17° 79° (ENE) 03:55:28 435.910
HORYU 2 29 Mar 03:51:23 03:54:35 19° 90° (E) 03:57:53 437.375
STARS 29 Mar 04:00:53 04:04:55 34° 264° (W) 04:08:56 437.465
Oscar 19 29 Mar 04:18:21 04:22:29 24° 300° (WNW) 04:26:32 437.125/150
RS-15 29 Mar 04:22:59 04:34:27 90° 220° (SW) 04:46:26 29.354- 29.394
AUBIESAT-1 29 Mar 04:27:05 04:30:46 31° 59° (ENE) 04:34:44 437.475
Gurwin Techsat 1B 29 Mar 04:29:28 04:34:43 58° 290° (WNW) 04:39:55 435.225
M-CUBED/EXP-1 PRIME 29 Mar 04:50:44 04:54:46 55° 65° (ENE) 04:59:10 437.505
ISS 29 Mar 04:55:15 04:58:28 62° 205° (SSW) 05:01:40 145.825
MOZHAYETS 4 29 Mar 04:59:10 05:03:48 89° 237° (WSW) 05:08:30
AIST 1 29 Mar 05:05:57 05:10:22 82° 280° (W) 05:14:48
O/OREOS (USA 219) 29 Mar 05:09:38 05:14:15 84° 115° (ESE) 05:18:53 437.305
CUBESAT XI-V 29 Mar 05:10:38 05:13:11 15° 58° (ENE) 05:15:53 437.345
SO-50 29 Mar 05:17:11 05:21:02 23° 246° (WSW) 05:24:48 436.795
GONETS M04 29 Mar 05:21:22 05:28:16 25° 56° (NE) 05:35:24
ITAMSAT 1 29 Mar 05:23:15 05:27:03 20° 302° (WNW) 05:30:43 435.822/435.867
HORYU 2 29 Mar 05:27:12 05:31:37 55° 289° (WNW) 05:36:02 437.375
JAS-2 29 Mar 05:29:31 05:37:23 72° 102° (ESE) 05:44:43 435.910
AO-7 29 Mar 05:35:36 05:43:56 73° 107° (ESE) 05:52:14 29.400- 29.500
STRAND 1 29 Mar 05:48:21 05:52:09 22° 59° (ENE) 05:56:04 437.568
AUBIESAT-1 29 Mar 06:01:45 06:05:32 35° 260° (W) 06:09:36 437.475
CUTE-I 29 Mar 06:03:32 06:05:12 12° 83° (E) 06:07:10 437.470
Cubesat XI-IV 29 Mar 06:03:33 06:05:19 12° 83° (E) 06:07:23 437.490
PRISM 29 Mar 06:06:28 06:10:16 34° 67° (ENE) 06:14:08 437.425
Gurwin Techsat 1B 29 Mar 06:11:49 06:13:44 12° 309° (NW) 06:15:24 435.225
M-CUBED/EXP-1 PRIME 29 Mar 06:27:06 06:30:06 19° 266° (W) 06:33:10 437.505
ISS 29 Mar 06:32:43 06:34:23 13° 222° (SW) 06:35:58 145.825
RS-15 29 Mar 06:36:13 06:45:44 30° 254° (WSW) 06:55:12 29.354- 29.394
MOZHAYETS 4 29 Mar 06:39:56 06:41:51 12° 276° (W) 06:43:31
CUBESAT XI-V 29 Mar 06:45:18 06:50:02 89° 255° (WSW) 06:54:46 437.345
AIST 1 29 Mar 06:47:30 06:48:54 11° 301° (WNW) 06:50:06
O/OREOS (USA 219) 29 Mar 06:51:08 06:54:20 18° 317° (NW) 06:57:27 437.305
JAS-2 29 Mar 07:15:04 07:21:51 33° 303° (WNW) 07:28:12 435.910
DANDE 29 Mar 07:16:01 07:18:19 16° 68° (ENE) 07:21:08 436.750
GONETS M04 29 Mar 07:17:40 07:26:34 90° 93° (E) 07:35:26
STRAND 1 29 Mar 07:25:49 07:30:57 67° 257° (WSW) 07:36:06 437.568
VERMONT LUNAR 29 Mar 07:28:12 07:30:21 16° 170° (S) 07:32:32 437.305
AO-7 29 Mar 07:28:59 07:36:13 34° 308° (NW) 07:43:20 29.400- 29.500
CUTE-I 29 Mar 07:41:00 07:46:21 75° 103° (ESE) 07:51:41 437.470
Cubesat XI-IV 29 Mar 07:41:07 07:46:29 76° 103° (ESE) 07:51:49 437.490
PRISM 29 Mar 07:42:10 07:45:50 27° 266° (W) 07:49:27 437.425
PHONESAT 2.4 29 Mar 08:06:39 08:08:56 16° 168° (SSE) 08:11:15 2401.200-2431.200
CUSAT 1 29 Mar 08:09:38 08:13:32 69° 77° (ENE) 08:18:48 437.405
CUBESAT XI-V 29 Mar 08:26:16 08:28:17 12° 276° (W) 08:30:04 437.345
SEEDS 29 Mar 08:52:28 08:54:00 12° 85° (E) 08:55:43 437.485
DANDE 29 Mar 08:58:03 09:01:41 52° 260° (W) 09:06:30 436.750
BRITE-PL 29 Mar 08:58:11 09:01:43 26° 94° (E) 09:05:25 437.365/2234.400
VERMONT LUNAR 29 Mar 09:05:03 09:07:23 18° 186° (S) 09:09:43 437.305
COMPASS 1 29 Mar 09:14:17 09:16:57 16° 88° (E) 09:19:44 437.405
GONETS M04 29 Mar 09:15:48 09:22:23 23° 282° (WNW) 09:28:37
CINEMA 3 29 Mar 09:17:39 09:19:04 12° 86° (E) 09:20:44 145.822/145.860
CUTE-I 29 Mar 09:22:02 09:25:57 21° 302° (WNW) 09:29:43 437.470
Cubesat XI-IV 29 Mar 09:22:11 09:26:05 21° 303° (WNW) 09:29:51 437.490
AO-7 29 Mar 09:23:46 09:26:37 12° 333° (NNW) 09:29:13 29.400- 29.500
ANTELSAT 29 Mar 09:29:22 09:31:59 16° 60° (ENE) 09:34:45 437.575/2403.000
HO-68 29 Mar 09:31:15 09:38:00 42° 97° (E) 09:44:46 435.675
DOVE 4 29 Mar 09:35:08 09:38:54 30° 95° (E) 09:42:51 437.250
CANX-2 29 Mar 09:42:47 09:46:58 47° 98° (E) 09:51:09 2200.000
PHONESAT 2.4 29 Mar 09:43:59 09:46:36 19° 184° (S) 09:49:13 2401.200-2431.200
QB50P2 29 Mar 09:44:52 09:46:43 13° 58° (ENE) 09:48:45 145.880/145.840
GOMX 1 29 Mar 09:45:25 09:49:34 52° 100° (E) 09:53:54 467.674
CUSAT 1 29 Mar 09:53:57 09:56:16 14° 267° (W) 09:58:39 437.405
CUTE 1.7 + AOD 2 29 Mar 09:56:42 10:00:59 59° 100° (E) 10:05:15 437.475
DELFI C3 29 Mar 10:03:08 10:05:49 17° 89° (E) 10:08:36 145.870
POPSAT HIP 1 29 Mar 10:12:07 10:15:18 22° 63° (ENE) 10:18:35 437.405
BUGSAT 1 29 Mar 10:12:44 10:15:20 17° 61° (ENE) 10:18:01 437.445
UKube-1 29 Mar 10:18:27 10:20:09 12° 86° (E) 10:22:05 .
AAUSAT CUBESAT 2 29 Mar 10:21:45 10:26:00 66° 101° (ESE) 10:30:12 437.432
NANOSAT C BR1 29 Mar 10:22:24 10:25:55 27° 65° (ENE) 10:29:29 145.865
UNISAT 6 29 Mar 10:23:38 10:27:44 48° 70° (ENE) 10:31:58 437.425
SEEDS 29 Mar 10:26:10 10:30:29 83° 285° (WNW) 10:34:46 437.485
POLYITAN 1 29 Mar 10:26:22 10:30:01 29° 66° (ENE) 10:33:43 437.675
HUMSAT D 29 Mar 10:27:23 10:28:39 11° 85° (E) 10:30:07 437.325/437.525
DX 1 29 Mar 10:27:43 10:30:23 16° 89° (E) 10:33:13 434.975-435.025
TIGRISAT 29 Mar 10:33:51 10:38:02 59° 72° (ENE) 10:42:19 435.000
BRITE-PL 29 Mar 10:36:36 10:40:23 33° 292° (WNW) 10:44:14 437.365/2234.400
BEESAT 2 29 Mar 10:44:32 10:48:02 27° 118° (ESE) 10:51:38 435.950
Oscar 11 29 Mar 10:46:10 10:50:30 58° 100° (E) 10:54:48 145.826/435.025
COMPASS 1 29 Mar 10:48:53 10:53:05 59° 288° (WNW) 10:57:15 437.405
CINEMA 3 29 Mar 10:52:34 10:56:57 88° 284° (WNW) 11:01:30 145.822/145.860
FUNcube-1 29 Mar 10:56:29 11:00:37 40° 98° (E) 11:04:49 145.935
UWE-3 29 Mar 11:00:23 11:04:42 54° 100° (E) 11:09:07 435.000/436.395/437.385
QB50P1 29 Mar 11:03:04 11:07:15 66° 74° (ENE) 11:11:28 145.935-145.965
ANTELSAT 29 Mar 11:04:03 11:08:19 69° 258° (WSW) 11:12:41 437.575/2403.000
DUCHIFAT 1 29 Mar 11:05:00 11:09:10 67° 73° (ENE) 11:13:21 145.980
CUBEBUG 2 29 Mar 11:05:10 11:09:34 72° 102° (ESE) 11:14:05 437.445
VELOX 1 29 Mar 11:07:00 11:10:05 19° 90° (E) 11:13:15 145.980
ZACube-1 29 Mar 11:09:14 11:13:31 55° 100° (E) 11:17:55 437.345
AISAT 29 Mar 11:11:28 11:14:48 21° 91° (E) 11:18:13 437.250
DOVE 4 29 Mar 11:12:54 11:16:44 32° 292° (WNW) 11:20:41 437.250
50 SAT 29 Mar 11:13:23 11:16:29 21° 92° (E) 11:19:40 437.505
QB50P2 29 Mar 11:17:49 11:22:03 87° 252° (WSW) 11:26:19 145.880/145.840
HO-68 29 Mar 11:19:00 11:25:53 49° 297° (WNW) 11:32:42 435.675
CANX-2 29 Mar 11:19:17 11:22:40 22° 296° (WNW) 11:25:57 2200.000
BEESAT 3 29 Mar 11:21:02 11:25:06 68° 126° (SE) 11:29:15 437.485
PHONESAT 2.4 29 Mar 11:22:58 11:24:11 11° 201° (SSW) 11:25:21 2401.200-2431.200
GOMX 1 29 Mar 11:24:25 11:27:28 19° 297° (WNW) 11:30:30 467.674
CUTE 1.7 + AOD 2 29 Mar 11:33:32 11:36:32 18° 298° (WNW) 11:39:27 437.475
DELFI C3 29 Mar 11:37:20 11:41:22 53° 288° (WNW) 11:45:21 145.870
ESTCUBE 1 29 Mar 11:40:35 11:44:07 22° 91° (E) 11:47:43 437.505/2401.250
BUGSAT 1 29 Mar 11:46:19 11:50:27 61° 259° (WSW) 11:54:32 437.445
POPSAT HIP 1 29 Mar 11:46:54 11:50:58 45° 261° (W) 11:55:03 437.405
UKube-1 29 Mar 11:52:37 11:56:59 81° 286° (WNW) 12:01:18 .
AIST 2 29 Mar 11:55:25 11:59:32 49° 123° (ESE) 12:03:43 435.215
NANOSAT C BR1 29 Mar 11:57:46 12:01:40 36° 263° (W) 12:05:34 145.865
AAUSAT CUBESAT 2 29 Mar 11:58:29 12:01:12 16° 299° (WNW) 12:03:48 437.432
O/OREOS (USA 219) 29 Mar 11:59:42 12:00:08 10° 33° (NNE) 12:00:45 437.305
HUMSAT D 29 Mar 12:00:50 12:05:06 86° 285° (WNW) 12:09:23 437.325/437.525
UNISAT 6 29 Mar 12:01:39 12:04:52 20° 270° (W) 12:08:02 437.425
POLYITAN 1 29 Mar 12:02:06 12:05:55 32° 264° (W) 12:09:43 437.675
DX 1 29 Mar 12:02:49 12:07:07 61° 288° (WNW) 12:11:24 434.975-435.025
SEEDS 29 Mar 12:03:58 12:05:39 12° 303° (WNW) 12:07:10 437.485
TIGRISAT 29 Mar 12:12:30 12:15:16 16° 272° (W) 12:17:57 435.000
YUBILEINY 29 Mar 12:19:07 12:23:02 14° 71° (ENE) 12:27:31 435.215
Oscar 19 29 Mar 12:21:53 12:25:40 22° 59° (ENE) 12:29:36 437.125/150
BEESAT 2 29 Mar 12:22:03 12:26:03 44° 317° (NW) 12:30:05 435.950
Oscar 11 29 Mar 12:23:11 12:26:20 19° 298° (WNW) 12:29:22 145.826/435.025
CINEMA 3 29 Mar 12:31:36 12:33:38 13° 301° (WNW) 12:35:32 145.822/145.860
FUNcube-1 29 Mar 12:33:11 12:36:49 26° 295° (WNW) 12:40:25 145.935
UWE-3 29 Mar 12:37:42 12:40:58 20° 297° (WNW) 12:44:10 435.000/436.395/437.385
Gurwin Techsat 1B 29 Mar 12:40:11 12:41:17 11° 50° (NE) 12:42:39 435.225
QB50P1 29 Mar 12:41:12 12:43:39 15° 272° (W) 12:45:56 145.935-145.965
TISAT 1 29 Mar 12:42:17 12:45:19 19° 91° (E) 12:48:27 437.305
VELOX 1 29 Mar 12:42:42 12:47:03 54° 289° (WNW) 12:51:20 145.980
CUBEBUG 1 29 Mar 12:42:43 12:47:06 78° 103° (ESE) 12:51:25 437.445
CUBEBUG 2 29 Mar 12:43:05 12:45:51 16° 299° (WNW) 12:48:31 437.445
DUCHIFAT 1 29 Mar 12:43:11 12:45:31 14° 272° (W) 12:47:43 145.980
ZACube-1 29 Mar 12:46:23 12:49:36 20° 297° (WNW) 12:52:46 437.345
AISAT 29 Mar 12:47:27 12:51:42 48° 290° (WNW) 12:55:56 437.250
50 SAT 29 Mar 12:47:47 12:51:35 40° 290° (WNW) 12:55:23 437.505
SPROUT 29 Mar 12:52:08 12:55:53 29° 94° (E) 12:59:38 437.525
QB50P2 29 Mar 12:58:18 12:58:44 10° 276° (W) 12:58:56 145.880/145.840
BEESAT 3 29 Mar 13:00:10 13:03:34 23° 327° (NNW) 13:06:57 437.485
AO-7 29 Mar 13:01:00 13:04:22 13° 31° (NNE) 13:08:00 29.400- 29.500
HO-68 29 Mar 13:08:35 13:12:05 14° 319° (NW) 13:15:19 435.675
ESTCUBE 1 29 Mar 13:16:55 13:21:17 47° 290° (WNW) 13:25:35 437.505/2401.250
ITAMSAT 1 29 Mar 13:26:45 13:31:05 28° 62° (ENE) 13:35:31 435.822/435.867
SWISSCUBE 29 Mar 13:29:11 13:31:07 13° 85° (E) 13:33:18 437.505
UKube-1 29 Mar 13:30:44 13:32:28 12° 304° (NW) 13:34:02 .
BEESAT 29 Mar 13:32:11 13:34:04 12° 85° (E) 13:36:11 436.000
AIST 2 29 Mar 13:34:31 13:38:20 30° 323° (NW) 13:42:10 435.215
O/OREOS (USA 219) 29 Mar 13:36:27 13:40:52 45° 56° (ENE) 13:45:14 437.305
HUMSAT D 29 Mar 13:38:31 13:40:16 12° 302° (WNW) 13:41:53 437.325/437.525
Oscar 19 29 Mar 13:59:33 14:04:38 65° 258° (WSW) 14:09:46 437.125/150
BEESAT 2 29 Mar 14:02:59 14:05:14 14° 339° (NNW) 14:07:25 435.950
JAS-2 29 Mar 14:04:23 14:08:14 16° 44° (NE) 14:12:29 435.910
YUBILEINY 29 Mar 14:09:34 14:18:11 63° 93° (E) 14:26:55 435.215
Gurwin Techsat 1B 29 Mar 14:15:05 14:20:15 54° 69° (ENE) 14:25:27 435.225
TISAT 1 29 Mar 14:17:22 14:21:26 47° 290° (WNW) 14:25:27 437.305
ITUPSAT 1 29 Mar 14:17:25 14:21:41 31° 95° (E) 14:25:57 437.325
CUBEBUG 1 29 Mar 14:20:27 14:22:57 15° 301° (WNW) 14:25:19 437.445
SPROUT 29 Mar 14:28:08 14:32:01 33° 293° (WNW) 14:35:50 437.525
BEESAT 3 29 Mar 14:42:25 14:43:04 10° 350° (N) 14:43:41 437.485
AO-7 29 Mar 14:47:35 14:54:59 39° 55° (NE) 15:02:29 29.400- 29.500
HORYU 2 29 Mar 14:53:38 14:57:28 30° 65° (ENE) 15:01:23 437.375
SWISSCUBE 29 Mar 15:04:58 15:09:48 89° 104° (ESE) 15:14:35 437.505
ITAMSAT 1 29 Mar 15:05:18 15:10:23 50° 260° (W) 15:15:29 435.822/435.867
BEESAT 29 Mar 15:07:54 15:12:45 88° 109° (ESE) 15:17:33 436.000
AIST 1 29 Mar 15:09:03 15:13:06 37° 73° (ENE) 15:17:08
KKS-1 29 Mar 15:14:45 15:18:19 24° 92° (E) 15:21:57 437.445
O/OREOS (USA 219) 29 Mar 15:16:20 15:20:04 25° 256° (WSW) 15:23:43 437.305
AIST 2 29 Mar 15:16:33 15:18:16 12° 346° (NNW) 15:19:56 435.215
PCSat 29 Mar 15:21:38 15:26:49 49° 118° (ESE) 15:32:04 145.827
JAS-2 29 Mar 15:44:48 15:51:38 52° 65° (ENE) 15:59:07 435.910
STARS 29 Mar 15:46:14 15:50:09 31° 95° (E) 15:54:07 437.465
ITUPSAT 1 29 Mar 15:55:12 15:59:39 38° 294° (WNW) 16:04:03 437.325
Gurwin Techsat 1B 29 Mar 15:56:10 16:00:35 25° 269° (W) 16:04:56 435.225
YUBILEINY 29 Mar 16:07:36 16:15:40 37° 296° (WNW) 16:23:39 435.215
BEESAT 3 29 Mar 16:21:44 16:22:56 11° 14° (NNE) 16:24:12 437.485
HORYU 2 29 Mar 16:29:58 16:34:05 35° 264° (W) 16:38:11 437.375
AO-7 29 Mar 16:39:15 16:47:30 64° 256° (WSW) 16:55:45 29.400- 29.500
SWISSCUBE 29 Mar 16:44:13 16:47:03 15° 303° (WNW) 16:49:44 437.505
AIST 1 29 Mar 16:47:06 16:50:37 24° 271° (W) 16:54:00
BEESAT 29 Mar 16:47:08 16:49:59 16° 303° (WNW) 16:52:42 436.000
KKS-1 29 Mar 16:50:57 16:55:11 43° 291° (WNW) 16:59:23 437.445
MOZHAYETS 4 29 Mar 16:51:14 16:54:12 17° 88° (E) 16:57:18
AIST 2 29 Mar 16:57:32 16:58:42 11° 10° (N) 16:59:55 435.215
PCSat 29 Mar 17:05:24 17:10:26 37° 318° (NW) 17:15:28 145.827
BEESAT 2 29 Mar 17:22:09 17:24:56 17° 26° (NNE) 17:27:45 435.950
STARS 29 Mar 17:22:41 17:26:38 33° 294° (WNW) 17:30:33 437.465
CUTE-I 29 Mar 17:28:11 17:32:48 31° 63° (ENE) 17:37:30 437.470
Cubesat XI-IV 29 Mar 17:28:24 17:33:03 31° 63° (ENE) 17:37:46 437.490
JAS-2 29 Mar 17:30:16 17:36:54 41° 268° (W) 17:44:04 435.910
AUBIESAT-1 29 Mar 17:39:41 17:42:19 15° 91° (E) 17:45:08 437.475
BEESAT 3 29 Mar 17:58:43 18:02:19 28° 36° (NE) 18:05:55 437.485
M-CUBED/EXP-1 PRIME 29 Mar 18:03:20 18:07:25 27° 98° (E) 18:11:31 437.505
HO-68 29 Mar 18:21:26 18:24:38 14° 41° (NE) 18:28:07 435.675
MOZHAYETS 4 29 Mar 18:27:18 18:31:58 66° 287° (WNW) 18:36:34
GONETS M04 29 Mar 18:30:15 18:36:17 22° 77° (ENE) 18:42:40
AIST 2 29 Mar 18:35:15 18:38:46 24° 33° (NNE) 18:42:19 435.215
AO-7 29 Mar 18:38:01 18:42:17 14° 279° (W) 18:45:59 29.400- 29.500
CUBESAT XI-V 29 Mar 18:38:55 18:41:58 18° 88° (E) 18:45:08 437.345
PCSat 29 Mar 18:52:28 18:55:29 15° 343° (NNW) 18:58:26 145.827
RS-15 29 Mar 18:52:51 19:02:12 37° 109° (ESE) 19:11:57 29.354- 29.394
BEESAT 2 29 Mar 18:59:41 19:03:51 68° 48° (NE) 19:07:57 435.950
CUTE-I 29 Mar 19:07:34 19:12:44 47° 261° (W) 19:17:55 437.470
Cubesat XI-IV 29 Mar 19:07:51 19:13:01 46° 262° (W) 19:18:12 437.490
AUBIESAT-1 29 Mar 19:12:55 19:17:48 85° 290° (WNW) 19:22:36 437.475
PRISM 29 Mar 19:20:11 19:23:55 30° 96° (E) 19:27:37 437.425
CUTE 1.7 + AOD 2 29 Mar 19:21:55 19:22:32 10° 56° (NE) 19:23:22 437.475
GOMX 1 29 Mar 19:22:56 19:24:43 13° 59° (ENE) 19:26:38 467.674
STRAND 1 29 Mar 19:32:24 19:36:52 30° 94° (E) 19:41:23 437.568
SO-50 29 Mar 19:34:27 19:38:54 48° 122° (ESE) 19:43:34 436.795
BEESAT 3 29 Mar 19:36:35 19:40:36 50° 237° (WSW) 19:44:32 437.485
M-CUBED/EXP-1 PRIME 29 Mar 19:37:48 19:42:30 49° 296° (WNW) 19:47:08 437.505
AAUSAT CUBESAT 2 29 Mar 19:44:52 19:45:47 11° 57° (ENE) 19:46:54 437.432
SEEDS 29 Mar 19:48:37 19:51:05 16° 60° (ENE) 19:53:43 437.485
HO-68 29 Mar 20:04:03 20:10:50 49° 63° (ENE) 20:17:43 435.675
MOZHAYETS 4 29 Mar 20:07:04 20:08:23 11° 305° (NW) 20:09:30
COMPASS 1 29 Mar 20:09:51 20:12:54 20° 63° (ENE) 20:16:04 437.405
Oscar 11 29 Mar 20:12:30 20:13:40 11° 56° (NE) 20:15:03 145.826/435.025
BRITE-PL 29 Mar 20:13:04 20:17:32 51° 71° (ENE) 20:21:45 437.365/2234.400
AIST 2 29 Mar 20:13:31 20:17:47 68° 235° (SW) 20:21:58 435.215
CUBESAT XI-V 29 Mar 20:15:18 20:19:55 63° 288° (WNW) 20:24:28 437.345
GONETS M04 29 Mar 20:23:19 20:32:03 89° 94° (E) 20:40:52
CINEMA 3 29 Mar 20:23:28 20:26:10 17° 62° (ENE) 20:28:58 145.822/145.860
CUBEBUG 2 29 Mar 20:33:56 20:35:48 13° 59° (ENE) 20:37:51 437.445
BEESAT 2 29 Mar 20:38:49 20:41:34 17° 247° (WSW) 20:44:11 435.950
PCSat 29 Mar 20:39:02 20:41:17 12° 9° (N) 20:43:35 145.827
CANX-2 29 Mar 20:39:43 20:43:52 57° 72° (ENE) 20:48:06 2200.000
DOVE 4 29 Mar 20:45:08 20:49:16 48° 71° (ENE) 20:53:18 437.250
AUBIESAT-1 29 Mar 20:48:55 20:51:59 17° 309° (NW) 20:54:54 437.475
